Time,TemperatureF,DewpointF,PressureIn,WindDirection,WindDirectionDegrees,WindSpeedMPH,WindSpeedGustMPH,Humidity,HourlyPrecipIn,Conditions,Clouds,dailyrainin,SoftwareType,DateUTC
2013-08-13 00:12:00,71.1,70.0,29.95,WSW,256,0.0,0.0,97,0.00,,,0.00,weatherlink.com 1.10,2013-08-13 05:12:00,
2013-08-13 00:27:00,70.9,70.0,29.95,WSW,256,0.0,0.0,97,0.00,,,0.00,weatherlink.com 1.10,2013-08-13 05:27:00,
2013-08-13 00:42:00,70.9,70.0,29.95,WSW,256,0.0,0.0,97,0.00,,,0.00,weatherlink.com 1.10,2013-08-13 05:42:00,
2013-08-13 00:57:00,71.1,70.0,29.94,WSW,256,0.0,0.0,97,0.00,,,0.00,weatherlink.com 1.10,2013-08-13 05:57:00,
2013-08-13 01:12:00,71.1,70.0,29.95,WSW,256,0.0,0.0,97,0.00,,,0.00,weatherlink.com 1.10,2013-08-13 06:12:00,
2013-08-13 01:27:00,71.2,70.0,29.95,WSW,256,0.0,0.0,97,0.00,,,0.00,weatherlink.com 1.10,2013-08-13 06:27:00,
2013-08-13 01:42:00,71.4,71.0,29.95,WSW,256,0.0,1.0,97,0.00,,,0.00,weatherlink.com 1.10,2013-08-13 06:42:00,
2013-08-13 01:57:00,71.2,70.0,29.95,West,260,0.0,1.0,97,0.00,,,0.00,weatherlink.com 1.10,2013-08-13 06:57:00,
2013-08-13 02:12:00,71.2,70.0,29.95,West,260,0.0,0.0,97,0.00,,,0.00,weatherlink.com 1.10,2013-08-13 07:12:00,
2013-08-13 02:27:00,71.1,70.0,29.94,West,260,0.0,0.0,97,0.00,,,0.00,weatherlink.com 1.10,2013-08-13 07:27:00,
2013-08-13 02:42:00,70.9,70.0,29.93,West,260,0.0,0.0,97,0.00,,,0.00,weatherlink.com 1.10,2013-08-13 07:42:00,
2013-08-13 02:57:00,70.7,70.0,29.93,West,259,0.0,0.0,97,0.00,,,0.00,weatherlink.com 1.10,2013-08-13 07:57:00,
2013-08-13 03:12:00,70.6,70.0,29.94,West,260,0.0,0.0,97,0.00,,,0.00,weatherlink.com 1.10,2013-08-13 08:12:00,
2013-08-13 03:27:00,70.6,70.0,29.94,West,260,0.0,0.0,98,0.00,,,0.00,weatherlink.com 1.10,2013-08-13 08:27:00,
2013-08-13 03:42:00,70.8,70.0,29.94,West,260,0.0,0.0,98,0.00,,,0.00,weatherlink.com 1.10,2013-08-13 08:42:00,
2013-08-13 03:57:00,70.8,70.0,29.94,West,260,0.0,0.0,98,0.00,,,0.00,weatherlink.com 1.10,2013-08-13 08:57:00,
2013-08-13 04:12:00,70.8,70.0,29.93,West,259,0.0,0.0,98,0.00,,,0.00,weatherlink.com 1.10,2013-08-13 09:12:00,
2013-08-13 04:27:00,70.8,70.0,29.93,West,260,0.0,0.0,98,0.00,,,0.00,weatherlink.com 1.10,2013-08-13 09:27:00,
2013-08-13 04:42:00,70.5,70.0,29.93,West,260,0.0,0.0,97,0.00,,,0.00,weatherlink.com 1.10,2013-08-13 09:42:00,
2013-08-13 04:57:00,70.3,70.0,29.93,West,260,0.0,0.0,98,0.00,,,0.00,weatherlink.com 1.10,2013-08-13 09:57:00,
2013-08-13 05:12:00,70.3,70.0,29.94,West,260,0.0,0.0,98,0.00,,,0.00,weatherlink.com 1.10,2013-08-13 10:12:00,
2013-08-13 05:27:00,70.1,70.0,29.94,West,260,0.0,0.0,98,0.00,,,0.00,weatherlink.com 1.10,2013-08-13 10:27:00,
2013-08-13 05:42:00,70.1,70.0,29.94,West,260,0.0,0.0,98,0.00,,,0.00,weatherlink.com 1.10,2013-08-13 10:42:00,
2013-08-13 05:57:00,70.1,70.0,29.95,West,260,0.0,0.0,98,0.00,,,0.00,weatherlink.com 1.10,2013-08-13 10:57:00,
2013-08-13 06:12:00,70.3,70.0,29.96,West,260,0.0,0.0,98,0.00,,,0.00,weatherlink.com 1.10,2013-08-13 11:12:00,
2013-08-13 06:27:00,70.8,70.0,29.97,West,260,0.0,0.0,98,0.00,,,0.00,weatherlink.com 1.10,2013-08-13 11:27:00,
2013-08-13 06:42:00,71.2,71.0,29.97,West,260,0.0,0.0,98,0.00,,,0.00,weatherlink.com 1.10,2013-08-13 11:42:00,
2013-08-13 06:57:00,71.7,71.0,29.97,West,260,0.0,0.0,98,0.00,,,0.00,weatherlink.com 1.10,2013-08-13 11:57:00,
2013-08-13 07:12:00,72.0,71.0,29.97,West,260,0.0,0.0,98,0.00,,,0.00,weatherlink.com 1.10,2013-08-13 12:12:00,
2013-08-13 07:27:00,72.6,72.0,29.97,West,260,0.0,0.0,98,0.00,,,0.00,weatherlink.com 1.10,2013-08-13 12:27:00,
2013-08-13 07:42:00,73.2,73.0,29.97,West,260,0.0,0.0,98,0.00,,,0.00,weatherlink.com 1.10,2013-08-13 12:42:00,
2013-08-13 07:57:00,73.4,73.0,29.97,West,260,0.0,1.0,98,0.00,,,0.00,weatherlink.com 1.10,2013-08-13 12:57:00,
2013-08-13 08:12:00,73.7,73.0,29.98,NW,313,0.0,1.0,98,0.00,,,0.00,weatherlink.com 1.10,2013-08-13 13:12:00,
2013-08-13 08:28:00,73.9,73.0,29.98,SSW,205,0.0,1.0,97,0.00,,,0.00,weatherlink.com 1.10,2013-08-13 13:28:00,
2013-08-13 08:43:00,74.2,73.0,29.98,WSW,257,0.0,1.0,96,0.00,,,0.00,weatherlink.com 1.10,2013-08-13 13:43:00,
2013-08-13 08:58:00,75.0,74.0,29.98,WSW,249,0.0,1.0,95,0.00,,,0.00,weatherlink.com 1.10,2013-08-13 13:58:00,
2013-08-13 09:13:00,75.8,74.0,29.99,WNW,284,0.0,1.0,94,0.00,,,0.00,weatherlink.com 1.10,2013-08-13 14:13:00,
2013-08-13 09:28:00,76.1,74.0,29.99,West,262,0.0,1.0,92,0.00,,,0.00,weatherlink.com 1.10,2013-08-13 14:28:00,
2013-08-13 09:43:00,76.2,74.0,29.99,NE,46,1.0,1.0,92,0.00,,,0.00,weatherlink.com 1.10,2013-08-13 14:43:00,
2013-08-13 09:58:00,76.2,74.0,29.99,West,263,0.0,1.0,91,0.00,,,0.00,weatherlink.com 1.10,2013-08-13 14:58:00,
2013-08-13 10:13:00,76.8,74.0,30.00,West,273,0.0,1.0,90,0.00,,,0.00,weatherlink.com 1.10,2013-08-13 15:13:00,
2013-08-13 10:28:00,77.5,74.0,30.00,WSW,239,0.0,2.0,90,0.00,,,0.00,weatherlink.com 1.10,2013-08-13 15:28:00,
2013-08-13 10:43:00,77.8,74.0,30.00,WSW,243,1.0,2.0,89,0.00,,,0.00,weatherlink.com 1.10,2013-08-13 15:43:00,
2013-08-13 10:58:00,78.3,74.0,30.00,WNW,291,0.0,2.0,87,0.00,,,0.00,weatherlink.com 1.10,2013-08-13 15:58:00,
2013-08-13 11:13:00,78.8,74.0,30.00,WNW,287,1.0,4.0,85,0.00,,,0.00,weatherlink.com 1.10,2013-08-13 16:13:00,
2013-08-13 11:28:00,79.7,75.0,29.99,WSW,257,0.0,2.0,85,0.00,,,0.00,weatherlink.com 1.10,2013-08-13 16:28:00,
2013-08-13 11:43:00,80.6,75.0,29.99,WNW,290,0.0,3.0,83,0.00,,,0.00,weatherlink.com 1.10,2013-08-13 16:43:00,
2013-08-13 11:58:00,82.1,75.0,29.99,NNE,12,4.0,5.0,79,0.00,,,0.00,weatherlink.com 1.10,2013-08-13 16:58:00,
2013-08-13 12:13:00,82.6,75.0,29.99,North,356,2.0,4.0,78,0.00,,,0.00,weatherlink.com 1.10,2013-08-13 17:13:00,
2013-08-13 12:28:00,83.5,75.0,29.99,West,263,2.0,4.0,75,0.00,,,0.00,weatherlink.com 1.10,2013-08-13 17:28:00,
2013-08-13 12:43:00,84.3,75.0,29.98,West,276,0.0,4.0,74,0.00,,,0.00,weatherlink.com 1.10,2013-08-13 17:43:00,
2013-08-13 12:58:00,85.3,75.0,29.98,NW,326,1.0,3.0,72,0.00,,,0.00,weatherlink.com 1.10,2013-08-13 17:58:00,
2013-08-13 13:13:00,84.9,75.0,29.98,NNE,18,2.0,3.0,72,0.00,,,0.00,weatherlink.com 1.10,2013-08-13 18:13:00,
2013-08-13 13:28:00,84.5,74.0,29.98,North,6,2.0,3.0,71,0.00,,,0.00,weatherlink.com 1.10,2013-08-13 18:28:00,
2013-08-13 13:43:00,84.5,75.0,29.97,North,4,1.0,4.0,72,0.00,,,0.00,weatherlink.com 1.10,2013-08-13 18:43:00,
2013-08-13 13:58:00,84.2,74.0,29.97,ENE,58,3.0,3.0,71,0.00,,,0.00,weatherlink.com 1.10,2013-08-13 18:58:00,
2013-08-13 14:13:00,83.9,74.0,29.97,WSW,242,1.0,4.0,71,0.00,,,0.00,weatherlink.com 1.10,2013-08-13 19:13:00,
2013-08-13 14:28:00,84.0,74.0,29.96,NE,34,2.0,4.0,72,0.00,,,0.00,weatherlink.com 1.10,2013-08-13 19:28:00,
2013-08-13 14:43:00,84.3,74.0,29.95,West,277,0.0,4.0,70,0.00,,,0.00,weatherlink.com 1.10,2013-08-13 19:43:00,
2013-08-13 14:58:00,84.6,73.0,29.94,East,95,0.0,4.0,68,0.00,,,0.00,weatherlink.com 1.10,2013-08-13 19:58:00,
2013-08-13 15:13:00,84.1,73.0,29.93,NNE,25,1.0,5.0,70,0.00,,,0.00,weatherlink.com 1.10,2013-08-13 20:13:00,
2013-08-13 15:28:00,84.2,73.0,29.92,North,5,2.0,6.0,69,0.00,,,0.00,weatherlink.com 1.10,2013-08-13 20:28:00,
2013-08-13 15:44:00,84.3,73.0,29.92,West,276,0.0,6.0,68,0.00,,,0.00,weatherlink.com 1.10,2013-08-13 20:44:00,
2013-08-13 15:59:00,84.1,72.0,29.91,North,360,2.0,7.0,68,0.00,,,0.00,weatherlink.com 1.10,2013-08-13 20:59:00,
2013-08-13 16:14:00,84.0,73.0,29.91,WSW,239,0.0,3.0,70,0.00,,,0.00,weatherlink.com 1.10,2013-08-13 21:14:00,
2013-08-13 16:29:00,83.7,74.0,29.91,NNE,29,1.0,4.0,72,0.00,,,0.00,weatherlink.com 1.10,2013-08-13 21:29:00,
2013-08-13 16:44:00,83.8,73.0,29.91,NW,307,2.0,5.0,71,0.00,,,0.00,weatherlink.com 1.10,2013-08-13 21:44:00,
2013-08-13 16:59:00,84.6,73.0,29.91,North,8,3.0,5.0,68,0.00,,,0.00,weatherlink.com 1.10,2013-08-13 21:59:00,
2013-08-13 17:14:00,85.7,74.0,29.92,WSW,256,2.0,4.0,67,0.00,,,0.00,weatherlink.com 1.10,2013-08-13 22:14:00,
2013-08-13 17:29:00,84.9,74.0,29.92,NNE,22,1.0,4.0,70,0.00,,,0.00,weatherlink.com 1.10,2013-08-13 22:29:00,
2013-08-13 17:44:00,84.0,73.0,29.92,NNW,346,3.0,5.0,70,0.00,,,0.00,weatherlink.com 1.10,2013-08-13 22:44:00,
2013-08-13 17:59:00,84.8,73.0,29.91,NNE,14,2.0,5.0,67,0.00,,,0.00,weatherlink.com 1.10,2013-08-13 22:59:00,
2013-08-13 18:14:00,83.4,72.0,29.91,NNW,340,1.0,4.0,68,0.00,,,0.00,weatherlink.com 1.10,2013-08-13 23:14:00,
2013-08-13 18:29:00,82.3,72.0,29.92,ESE,115,0.0,3.0,72,0.00,,,0.00,weatherlink.com 1.10,2013-08-13 23:29:00,
2013-08-13 18:44:00,81.1,72.0,29.92,North,352,1.0,4.0,74,0.00,,,0.00,weatherlink.com 1.10,2013-08-13 23:44:00,
2013-08-13 18:59:00,80.8,72.0,29.92,ENE,74,1.0,3.0,75,0.00,,,0.00,weatherlink.com 1.10,2013-08-13 23:59:00,
2013-08-13 19:14:00,80.4,73.0,29.92,NNE,28,0.0,2.0,77,0.00,,,0.00,weatherlink.com 1.10,2013-08-14 00:14:00,
2013-08-13 19:29:00,79.9,73.0,29.92,NNW,346,0.0,1.0,78,0.00,,,0.00,weatherlink.com 1.10,2013-08-14 00:29:00,
2013-08-13 19:44:00,79.3,73.0,29.92,NNW,348,1.0,1.0,80,0.00,,,0.00,weatherlink.com 1.10,2013-08-14 00:44:00,
2013-08-13 19:59:00,79.1,73.0,29.93,NNE,23,0.0,2.0,81,0.00,,,0.00,weatherlink.com 1.10,2013-08-14 00:59:00,
2013-08-13 20:14:00,78.6,73.0,29.93,NE,51,0.0,1.0,82,0.00,,,0.00,weatherlink.com 1.10,2013-08-14 01:14:00,
2013-08-13 20:29:00,77.7,73.0,29.94,NE,51,0.0,0.0,84,0.00,,,0.00,weatherlink.com 1.10,2013-08-14 01:29:00,
2013-08-13 20:44:00,77.4,73.0,29.94,ENE,65,0.0,1.0,85,0.00,,,0.00,weatherlink.com 1.10,2013-08-14 01:44:00,
2013-08-13 20:59:00,77.0,73.0,29.95,ENE,65,0.0,0.0,87,0.00,,,0.00,weatherlink.com 1.10,2013-08-14 01:59:00,
2013-08-13 21:14:00,77.0,73.0,29.95,ENE,65,0.0,1.0,86,0.00,,,0.00,weatherlink.com 1.10,2013-08-14 02:14:00,
2013-08-13 21:29:00,77.1,72.0,29.96,NNW,344,0.0,1.0,85,0.00,,,0.00,weatherlink.com 1.10,2013-08-14 02:29:00,
2013-08-13 21:44:00,77.2,72.0,29.97,NE,37,0.0,1.0,84,0.00,,,0.00,weatherlink.com 1.10,2013-08-14 02:44:00,
2013-08-13 21:59:00,77.3,72.0,29.98,North,8,1.0,3.0,83,0.00,,,0.00,weatherlink.com 1.10,2013-08-14 02:59:00,
2013-08-13 22:14:00,77.2,71.0,29.97,East,85,1.0,3.0,82,0.00,,,0.00,weatherlink.com 1.10,2013-08-14 03:14:00,
2013-08-13 22:29:00,77.0,70.0,29.98,North,360,1.0,4.0,80,0.00,,,0.00,weatherlink.com 1.10,2013-08-14 03:29:00,
2013-08-13 22:44:00,76.7,70.0,29.97,NNE,18,2.0,3.0,80,0.00,,,0.00,weatherlink.com 1.10,2013-08-14 03:44:00,
2013-08-13 22:59:00,76.4,70.0,29.97,North,359,1.0,2.0,80,0.00,,,0.00,weatherlink.com 1.10,2013-08-14 03:59:00,
2013-08-13 23:14:00,76.1,70.0,29.97,East,98,0.0,2.0,81,0.00,,,0.00,weatherlink.com 1.10,2013-08-14 04:14:00,
2013-08-13 23:29:00,75.8,69.0,29.97,NE,54,0.0,2.0,80,0.00,,,0.00,weatherlink.com 1.10,2013-08-14 04:29:00,
2013-08-13 23:44:00,75.6,69.0,29.97,ENE,77,2.0,2.0,80,0.00,,,0.00,weatherlink.com 1.10,2013-08-14 04:44:00,
2013-08-13 23:59:00,75.3,69.0,29.97,ENE,71,0.0,3.0,80,0.00,,,0.00,weatherlink.com 1.10,2013-08-14 04:59:00,